Volver al catálogo

ONEWEB-0013

ActivoComunicacionesPO
NORAD 45131·PAYLOAD·🇬🇧 United Kingdom

Lanzado Feb 6, 2020 desde Baikonur Cosmodrome

Loading…

Próximos Pases (próximas 24 horas)

TLE

ActualizadoSource: CelesTrak SupGP

Época: Sep 14, 2026, 19:40 UTC

1 45131C 20008A   26257.81963376  .00001657  00000+0  48160-2 0  2575
2 45131  87.8565  34.7302 0002636 107.7977 345.9195 13.09462083    12

Sigue ONEWEB-0013 en tiempo real con AllMySat

Download on the App Store